Regional Weather Roundup
Issued by NWS Burlington, VT

Home | Current Version | Previous Version | Text Only | Print | Product List | Glossary On
Versions: 1 2 3 4 5 6 7 8 9 10 11 12 13 14 15 16 17 18 19 20 21 22 23 24 25 26 27 28 29 30 31 32 33 34 35 36 37 38 39 40 41 42 43 44 45 46 47 48 49 50
000
ASUS41 KBTV 180530
RWRBTV
VERMONT REGIONAL WEATHER ROUNDUP
NATIONAL WEATHER SERVICE BURLINGTON VT
1200 AM EST SAT NOV 18 2017

NOTE: "FAIR" INDICATES FEW OR NO CLOUDS BELOW 12,000 FEET WITH NO
SIGNIFICANT WEATHER AND/OR OBSTRUCTIONS TO VISIBILITY.

* THESE REPORTS ARE NOT UNDER NWS QUALITY CONTROL AND/OR DO NOT
  REPORT WEATHER SUCH AS PRECIPITATION AND FOG.

VTZ001>019-180600-
_____VERMONT_____


CITY           SKY/WX    TMP DP  RH WIND       PRES   REMARKS
BURLINGTON     CLOUDY    22  15  75 E6        30.04F WCI  14
MONTPELIER     CLOUDY    16  14  92 CALM      30.01F
LYNDONVILLE*   FAIR      18  13  82 CALM      29.97F
MIDDLEBURY*    FAIR      22  14  72 CALM      30.02F
RUTLAND*       CLEAR     21  18  88 NE5       30.04S WCI  15
SPRINGFIELD    CLEAR     27  16  63 S3        30.02R
HIGHGATE*      FAIR      18  16  93 CALM      30.03F
NEWPORT*       FAIR      17  14  87 CALM      29.99F
BENNINGTON     CLEAR     22  16  78 CALM      30.02F
SUTTON*          N/A     14 N/A N/A MISG        N/A

_____LAKE CHAMPLAIN_____


CITY           SKY/WX    TMP DP  RH WIND       PRES   REMARKS
BURTON ISLAND*   N/A     32  23  69 W1          N/A
COLCHESTER RF*   N/A     32  23  69 E8          N/A  WCI  25
DIAMOND ISL*     N/A     30  21  69 SE7         N/A  WCI  23

$$

NYZ007-026>031-035-052-083-087-180600-
_____NORTHERN NEW YORK_____


CITY           SKY/WX    TMP DP  RH WIND       PRES   REMARKS
PLATTSBURGH    CLEAR     20  13  74 CALM      30.03F
SARANAC LAKE   CLOUDY     8   5  87 CALM      29.94F
MASSENA        PTCLDY    18  16  92 CALM      30.03F
OGDENSBURG*    FAIR      24  22  91 CALM      29.99F
POTSDAM*       CLEAR     21  21 100 SE3       29.98F
WATERTOWN      CLOUDY    25  22  88 E3        30.00S
FT DRUM        CLOUDY    26  20  79 SE8       29.98F WCI  17
ALBANY         PTCLDY    26  17  68 CALM      30.06F
GLENS FALLS    CLEAR     20  16  84 CALM      30.04F

$$
NHZ002-005-011-180600-
_____NEW HAMPSHIRE_____


CITY           SKY/WX    TMP DP  RH WIND       PRES   REMARKS
LEBANON        CLEAR     21  17  84 CALM      30.01R
KEENE          CLEAR     19  15  84 CALM      30.02R
MT WASHINGTON  PTCLDY    19 -29  10 NW68G79     N/A  WCI  -6
PLYMOUTH       FAIR      26  13  58 W10G20    29.99R WCI  16
WHITEFIELD     CLOUDY    16  13  88 CALM      29.97R

$$

_____REGIONAL QUEBEC LOCATIONS_____


CITY           SKY/WX    TMP DP  RH WIND       PRES   REMARKS
MONTREAL       MOCLDY    25  16  68 SW3       30.03F
QUEBEC CITY    PTCLDY    19  10  68 W3        29.96S
SHERBROOKE     CLEAR     18  14  86 W7        29.96F WCI   8

_____REGIONAL ONTARIO LOCATIONS_____


CITY           SKY/WX    TMP DP  RH WIND       PRES   REMARKS
OTTAWA         PTCLDY    23  14  68 E5        29.99F WCI  17

______KEY______
VSB  - VISIBILITY IN MILES
WCI  - WIND CHILL INDEX
HX   - HEAT INDEX
$$
NNNN



USA.gov is the U.S. government's official web portal to all federal, state and local government web resources and services.